Location: Newark
(13.8117°N, 3.6025°W)
Time: 22:31:26
(UTC+00:00)

Vanguard 2 - Pass Details

Date: 03 September 2019
Orbit: 554 x 2937 km, 32.9° (Epoch: 18 September)

Event Time Altitude Azimuth Distance (km) Brightness Sun altitude
Rises 12:55:53 0° 321° (NW) 3,017 10.6 77.9°
Reaches altitude 10° 12:58:38 10° 341° (NNW) 2,316 10.1 77.3°
Maximum altitude 13:02:28 19° 27° (NNE) 2,095 9.9 76.5°
Drops below altitude 10° 13:07:33 10° 70° (ENE) 3,197 10.7 75.4°
Sets 13:12:16 0° 86° (E) 4,672 11.4 74.3°
